Du Bois, PA

5:28 PM EST on December 07, 2019 (GMT -0500)
Du Bois-Jefferson County

Weather History for KDUJ - October, 2019

Change the Weather History Date:

Tuesday, October 29, 2019

  Actual Average Record
Temperature  
Mean Temperature 59 °F 45 °F  
Max Temperature 70 °F 54 °F 71 °F (1971)
Min Temperature 48 °F 36 °F 16 °F (1965)
Degree Days  
Heating Degree Days 6 20  
Month to date heating degree days 379 455  
Since 1 July heating degree days 482 701  
Cooling Degree Days 0 0  
Month to date cooling degree days 23 0  
Year to date cooling degree days 430 360  
Growing Degree Days 9 (Base 50)    
Moisture  
Dew Point 48 °F    
Average Humidity 74    
Maximum Humidity 92    
Minimum Humidity 51    
Precipitation  
Precipitation 0.00 in 0.10 in 2.79 in (2012)
Month to date precipitation 3.72 2.93  
Year to date precipitation 40.12 36.17  
Sea Level Pressure  
Sea Level Pressure 30.16 in    
Wind  
Wind Speed 7 mph ()    
Max Wind Speed 17 mph    
Max Gust Speed 22 mph    
Visibility 10.0 miles    
Events      
T = Trace of Precipitation, MM = Missing Value Source: Averaged Metar Reports

Daily Weather History Graph

Daily Weather History Graph

Search for Another Location

Airport or City:

Astronomy

Oct. 29, 2019 Rise Set
Actual Time 7:42 AM EDT 6:15 PM EDT
Civil Twilight 7:14 AM EDT 6:43 PM EDT
Nautical Twilight 6:42 AM EDT 7:15 PM EDT
Astronomical Twilight 6:10 AM EDT 7:47 PM EDT
Moon 9:14 AM EDT (10/29) 7:37 PM EDT (10/29)
Length of Visible Light 11h 29m
Length of Day
10h 32m
Waxing Crescent, 3% of the Moon is Illuminated
Oct 29
Waxing Crescent
Nov 4
First Quarter
Nov 12
Full
Nov 19
Last Quarter
Nov 26
New

Hourly Weather History & Observations

Time (EDT) Temp. Dew Point Humidity Pressure Visibility Wind Dir Wind Speed Gust Speed Precip Events Conditions
12:53 AM 53.1 °F 43.0 °F 69% 30.12 in 10.0 mi SE 10.4 mph - N/A   Clear
1:53 AM 52.0 °F 43.0 °F 71% 30.12 in 10.0 mi SE 10.4 mph - N/A   Clear
2:53 AM 50.0 °F 44.1 °F 80% 30.12 in 10.0 mi ESE 8.1 mph - N/A   Clear
3:53 AM 50.0 °F 45.0 °F 83% 30.12 in 10.0 mi ESE 8.1 mph - N/A   Clear
4:53 AM 48.9 °F 45.0 °F 86% 30.11 in 10.0 mi ESE 10.4 mph - N/A   Clear
5:53 AM 48.9 °F 45.0 °F 86% 30.14 in 10.0 mi SE 8.1 mph - N/A   Clear
6:53 AM 48.9 °F 45.0 °F 86% 30.14 in 10.0 mi SE 10.4 mph - N/A   Clear
7:53 AM 48.0 °F 45.0 °F 89% 30.16 in 10.0 mi SE 9.2 mph - N/A   Partly Cloudy
8:53 AM 50.0 °F 46.9 °F 89% 30.18 in 10.0 mi SE 9.2 mph - N/A   Overcast
9:53 AM 54.0 °F 48.0 °F 80% 30.18 in 10.0 mi ESE 9.2 mph - N/A   Clear
10:53 AM 57.0 °F 48.9 °F 74% 30.17 in 10.0 mi Variable 5.8 mph - N/A   Mostly Cloudy
11:53 AM 62.1 °F 50.0 °F 65% 30.16 in 10.0 mi Variable 6.9 mph - N/A   Clear
12:53 PM 64.9 °F 51.1 °F 61% 30.15 in 10.0 mi South 8.1 mph - N/A   Partly Cloudy
1:53 PM 66.0 °F 51.1 °F 59% 30.14 in 10.0 mi Variable 4.6 mph - N/A   Mostly Cloudy
2:53 PM 69.1 °F 51.1 °F 53% 30.12 in 10.0 mi South 13.8 mph 21.9 mph N/A   Mostly Cloudy
3:53 PM 69.1 °F 50.0 °F 51% 30.13 in 10.0 mi SW 15.0 mph 20.7 mph N/A   Scattered Clouds
4:53 PM 68.0 °F 51.1 °F 55% 30.13 in 10.0 mi SSW 6.9 mph - N/A   Mostly Cloudy
5:53 PM 64.9 °F 50.0 °F 58% 30.13 in 10.0 mi SSW 5.8 mph - N/A   Scattered Clouds
6:53 PM 61.0 °F 51.1 °F 70% 30.16 in 10.0 mi SE 4.6 mph - N/A   Mostly Cloudy
7:53 PM 59.0 °F 51.1 °F 75% 30.19 in 10.0 mi ESE 9.2 mph - N/A   Overcast
8:53 PM 57.0 °F 50.0 °F 77% 30.21 in 10.0 mi ESE 6.9 mph - N/A   Mostly Cloudy
9:53 PM 55.0 °F 50.0 °F 83% 30.22 in 10.0 mi Calm Calm - N/A   Scattered Clouds
10:53 PM 52.0 °F 48.9 °F 89% 30.23 in 10.0 mi Calm Calm - N/A   Clear
11:53 PM 51.1 °F 48.9 °F 92% 30.22 in 9.0 mi Calm Calm - N/A   Mostly Cloudy